Location: Asheville, NC
(35.6000°N, 82.5500°W)
Time: 02:37:10
(UTC-04:00)

AIST 2D - Visible Passes

Search period start: 18 July 2018 00:00
Search period end: 28 July 2018 00:00
Orbit: 461 x 474 km, 97.2° (Epoch: 17 July)

Date Brightness Start Highest point End Pass type
(mag) Time Alt. Az. Time Alt. Az. Time Alt. Az.
18 Jul ? 00:58:37 10° N 00:59:11 14° N 00:59:11 14° N visible
19 Jul ? 00:28:53 10° NNE 00:29:14 12° NNE 00:29:14 12° NNE visible
21 Jul ? 01:02:57 10° N 01:03:19 12° N 01:03:19 12° N visible
22 Jul ? 00:33:07 10° NNE 00:33:22 12° NNE 00:33:22 12° NNE visible
24 Jul ? 01:07:17 10° N 01:07:26 11° NNW 01:07:26 11° NNW visible
25 Jul ? 00:37:22 10° N 00:37:27 11° N 00:37:27 11° N visible
